Location: Bay Shore Mobile Home Park
(38.5762°N, 75.0841°W)
Time: 08:36:04
(UTC+00:00)

Cosmos 2251 Rocket - Pass Details

Date: 15 November 2025
Orbit: 760 x 788 km, 74.0° (Epoch: 05 December)

Event Time Altitude Azimuth Distance (km) Brightness Sun altitude
Rises 22:28:13 0° 172° (S) 3,219 6.9 -8.4°
Reaches altitude 10° 22:30:46 10° 163° (SSE) 2,302 6.0 -8.9°
Maximum altitude 22:35:25 33° 100° (E) 1,278 4.2 -9.7°
Drops below altitude 10° 22:40:06 10° 38° (NE) 2,333 5.5 -10.6°
Enters shadow 22:41:11 - 33° (NNE) 2,719 5.9 -10.8°
